Regional Weather Roundup
Issued by NWS

Home | Current Version | Previous Version | Graphics & Text | Print | Product List | Glossary On
Versions: 1 2 3 4 5 6 7 8 9 10 11 12 13 14 15 16 17 18 19 20 21 22 23 24 25 26 27 28 29 30 31 32 33 34 35 36 37 38 39 40 41 42 43 44 45 46 47 48 49 50
000
ASUS43 KDTX 261510
RWRMI
MICHIGAN HOURLY REGIONAL WEATHER ROUNDUP
NATIONAL WEATHER SERVICE DETROIT/PONTIAC MI
ISSUED BY NATIONAL WEATHER SERVICE GRAND RAPIDS MI
1100 AM EDT MON JUN 26 2017

NOTE: "FAIR" INDICATES FEW OR NO CLOUDS BELOW 12,000 FEET WITH NO
SIGNIFICANT WEATHER AND/OR OBSTRUCTION TO VISIBILITY.

MIZ047>049-052>055-059>063-066>070-074>076-081>083-261600-
SOUTHEAST LOWER MICHIGAN

CITY           SKY/WX    TMP DP  RH WIND       PRES   REMARKS
ADRIAN         MOSUNNY   67  44  43 NW16G24   30.07F
ALMA           CLOUDY    61  47  59 W16       30.02F
ANN ARBOR      MOSUNNY   65  48  54 W14G24    30.04F
BAD AXE        CLOUDY    61  51  71 W18G25    29.98S
DETROIT CITY   PTSUNNY   66  47  50 NW13G18   30.03F
DETROIT        PTSUNNY   68  49  50 W14       30.04F
FLINT          PTSUNNY   62  46  55 W17G24    30.02F
GROSSE ILE     MOSUNNY   66  50  55 W14       30.04S
HILLSDALE      PTSUNNY   63  43  48 W14G25    30.07S
HOWELL         CLOUDY    63  44  50 W10       30.03F

CITY           SKY/WX    TMP DP  RH WIND       PRES   REMARKS
JACKSON        MOSUNNY   65  45  48 W17G25    30.05F
LANSING        PTSUNNY   66  47  50 W16G25    30.04F
MASON          PTSUNNY   62  49  63 W14       30.05S
MONROE         PTSUNNY   66  49  53 W13G18    30.04F
MT. CLEMENS    PTSUNNY   65  49  55 W15G22    30.00F
PONTIAC        PTSUNNY   64  48  56 W16G23    30.02S
PORT HOPE        N/A     62  53  72 W12G20    29.95S
PORT HURON     CLOUDY    63  48  59 W8        30.01F
TRI CITIES     MOSUNNY   63  49  60 W18G25    30.00F
YPSILANTI      MOSUNNY   68  48  48 W14       30.04F
$$
MIZ043>046-050>051-056>058-064>065-071>073-077>080-261600-
SOUTHWEST LOWER MICHIGAN

CITY           SKY/WX    TMP DP  RH WIND       PRES   REMARKS
BATTLE CREEK   MOSUNNY   66  45  46 W17       30.07S
BENTON HARBOR  SUNNY     67  44  43 W14       30.09S
BIG RAPIDS     MOSUNNY   61  44  53 W17G23    30.00S
COLDWATER      CLOUDY    64  45  49 W12G18    30.08S
HOLLAND        MOSUNNY   64  49  57 W12G21    30.07S
GRAND RAPIDS   MOSUNNY   64  47  53 W17G25    30.04F
KALAMAZOO      MOSUNNY   67  40  37 NW20      30.08S
MARSHALL       PTSUNNY   67  45  45 W14G23    30.06S
MOUNT PLEASANT PTSUNNY   61  46  58 W13       30.00S
MUSKEGON       MOSUNNY   63  49  60 W14G21    30.05S
STURGIS        CLOUDY    64  49  57 W13       30.08S
$$
MIZ016>042-261600-
NORTHERN LOWER MICHIGAN

CITY           SKY/WX    TMP DP  RH WIND       PRES   REMARKS
ALPENA         HVY RAIN  55  52  89 W10G17    29.94R FOG
BEAVER ISLAND  CLOUDY    56  53  89 NW5       29.95R
BELLAIRE       CLOUDY    55  52  88 SW8       29.96S
CADILLAC       CLOUDY    57  45  62 W14       29.98S
CHARLEVOIX     CLOUDY    59  55  88 W8        29.97R
GAYLORD        CLOUDY    56  51  84 W14       29.94S
HOUGHTON LAKE  CLOUDY    57  46  66 W16       29.97F
MANISTEE       CLOUDY    57  48  72 W13       30.01S
OSCODA         CLOUDY    65  53  66 W13G21    29.93F
PELLSTON       CLOUDY    57  54  89 W3        29.92F
TRAVERSE CITY  PTSUNNY   59  46  62 W12G21    29.95F
LUDINGTON      PTSUNNY   58  50  73 W9G16     30.02S
$$
MIZ007>008-015-261600-
EASTERN UPPER MICHIGAN

CITY           SKY/WX    TMP DP  RH WIND       PRES   REMARKS
KINROSS        LGT RAIN  53  52  96 N7        29.94S
MACKINAC ISLAN CLOUDY    56  56 100 NE8       29.92S
NEWBERRY       LGT RAIN  50  49  97 N5        29.94S
S. S. MARIE    HVY RAIN  55  52  89 CALM      29.94R FOG
$$
MIZ004>006-011>014-085-261600-
CENTRAL UPPER MICHIGAN

CITY           SKY/WX    TMP DP  RH WIND       PRES   REMARKS
MANISTIQUE     CLOUDY    54  51  89 N5        29.95S
ESCANABA       CLOUDY    55  51  86 NW7       29.97S
MENOMINEE      CLOUDY    56  47  71 NW8       30.00S
SAWYER-GWINN   LGT RAIN  48  48 100 NE10      29.98R
$$
MIZ001>003-009>011-084-261600-
WESTERN UPPER MICHIGAN

CITY           SKY/WX    TMP DP  RH WIND       PRES   REMARKS
IRON MOUNTAIN  CLOUDY    52  46  80 NW7       29.99R
HOUGHTON       LGT RAIN  49  45  86 NW13      30.03S
COPPER HARBOR    N/A     51  45  79 N7        30.03R
IRONWOOD       LGT RAIN  49  46  90 CALM      30.10S
$$

ABBREVIATIONS USED IN REMARKS
   TC - TEMPERATURE IN CELSIUS
  WCI - WIND CHILL INDEX
   HX - HEAT INDEX
  VSB - VISIBILITY




USA.gov is the U.S. government's official web portal to all federal, state and local government web resources and services.